Location: Niles Junction
(37.5763°N, 121.9714°W)
Time: 04:18:29
(UTC+00:00)

Cosmos 2098 Rocket - Pass Details

Date: 29 October 2020
Orbit: 365 x 1184 km, 82.9° (Epoch: 23 November)

Event Time Altitude Azimuth Distance (km) Brightness Sun altitude
Rises 13:58:57 0° 198° (SSW) 3,765 7.0 -6.9°
Reaches altitude 10° 14:01:49 10° 203° (SSW) 2,704 6.2 -6.3°
Maximum altitude 14:07:46 50° 278° (W) 1,050 3.9 -5.2°
Drops below altitude 10° 14:12:35 10° 354° (N) 2,182 5.7 -4.3°
Sets 14:14:42 0° 360° (N) 2,981 6.4 -3.9°
